Location: Brede
(50.9167°N, 0.6000°E)
Time: 02:38:54
(UTC+00:00)

CZ-4B R/B - Pass Details

Date: 08 August 2020
Orbit: 391 x 462 km, 97.6° (Epoch: 27 September)

Event Time Altitude Azimuth Distance (km) Brightness Sun altitude
Rises 03:13:32 0° 132° (SE) 2,407 5.2 -11.2°
Reaches altitude 10° 03:15:53 10° 115° (ESE) 1,529 4.4 -11.0°
Maximum altitude 03:18:22 20° 65° (ENE) 1,036 4.3 -10.7°
Drops below altitude 10° 03:20:49 10° 16° (NNE) 1,509 5.0 -10.4°
Sets 03:23:07 0° 359° (N) 2,363 5.7 -10.1°
